Wind_Speed
5 6 6 7 7 7 7 7 7 6 6 6 6 6 7 6 6 6 6 7 7 7 7 6 6 6 6 6 5 5 5 5 5 5 5 6 6 6 6 6 6 6 6
6 6 7 8 8 8 8 7 7 7 7 7 7 7 7 7 6 6 7 7 7 8 8 7 7 6 6 6 6 6 5 5 5 6 6 6 6 6 7 7 7 7 7
6 7 7 8 8 8 8 8 8 8 8 8 8 8 8 8 8 8 8 8 8 8 8 8 7 7 7 7 7 6 6 6 6 6 6 6 6 7 7 7 7 8 8
7 7 7 8 8 8 8 8 8 8 8 8 8 8 8 9 9 9 9 9 8 8 9 8 8 7 8 8 7 7 7 7 7 6 6 6 6 7 7 7 8 8 9
8 8 8 8 8 9 9 9 9 8 8 8 8 8 8 9 9 9 9 9 9 9 9 9 9 8 8 8 7 7 7 8 7 7 6 6 6 7 7 7 7 8 8
8 9 9 8 8 9 9 9 9 9 9 9 9 9 8 9 9 9 10 10 9 8 9 9 9 8 8 8 8 8 8 8 8 7 7 7 7 7 7 8 8 8 9
9 9 9 9 9 9 9 9 8 8 8 9 9 9 9 9 9 10 10 9 9 8 8 9 9 9 9 9 8 9 8 9 9 8 7 7 8 8 8 8 9 10 10
9 9 9 10 10 10 9 9 9 8 8 9 9 10 10 9 9 9 9 9 9 9 9 9 9 9 9 9 9 10 9 9 9 9 8 8 8 8 9 9 9 10 11
9 9 10 10 10 10 9 9 9 9 9 9 10 10 10 9 9 9 9 9 9 9 9 9 10 10 9 9 9 10 10 10 10 10 9 10 10 10 10 10 10 10 11
10 10 10 10 10 9 9 10 9 10 10 10 11 10 10 9 9 9 9 9 9 9 9 9 10 10 10 10 10 10 10 10 10 10 10 10 10 10 10 11 11 11 11
10 10 11 10 10 9 9 9 10 10 10 10 11 10 10 9 9 9 9 9 9 9 9 9 9 9 10 10 10 10 10 10 10 10 11 10 11 11 11 11 11 11 11
10 11 11 10 10 10 10 10 10 10 10 10 10 10 9 9 9 9 8 8 8 9 8 9 8 9 10 10 10 10 10 10 11 11 10 10 10 10 11 11 11 11 11
11 11 11 11 11 11 11 11 10 10 10 10 9 9 9 9 9 9 9 9 8 8 9 9 9 9 10 10 10 10 10 10 11 10 10 10 9 9 10 11 11 11 11
12 12 12 12 12 11 11 11 11 11 10 10 9 8 8 8 8 9 8 8 8 8 8 8 9 9 10 10 10 10 10 10 10 10 9 9 9 9 9 10 11 11 11
12 12 12 12 12 12 12 11 11 11 10 10 9 8 8 8 8 9 8 8 8 8 8 8 8 8 9 9 9 9 9 9 9 9 9 9 9 9 9 10 11 11 11
13 13 12 12 12 12 12 12 11 11 11 10 10 9 9 8 8 8 8 8 8 8 8 8 8 8 8 8 8 8 8 8 8 9 8 8 8 9 9 10 10 10 10
13 13 13 13 13 12 12 11 11 11 10 10 9 9 9 8 9 9 8 9 8 8 8 8 8 8 8 8 8 8 7 7 7 7 8 8 8 9 9 10 9 10 9
14 14 13 13 13 12 12 11 11 11 10 10 10 9 9 8 9 8 8 8 8 8 9 8 8 8 8 8 8 8 8 8 8 8 8 8 9 9 8 8 8 8 8
14 14 14 13 13 13 12 11 11 11 10 9 10 10 10 9 9 8 8 7 7 8 9 9 8 8 8 8 8 8 8 8 8 8 8 8 9 9 8 8 8 8 8
15 15 15 14 14 13 12 11 11 11 11 11 11 10 10 10 9 9 9 8 8 9 9 8 8 8 8 8 8 8 8 8 8 8 8 7 7 8 8 8 7 8 8
16 15 15 15 14 13 12 11 11 11 11 11 11 11 10 10 10 10 10 10 10 9 9 9 8 8 8 8 8 8 8 8 8 8 8 7 7 7 7 6 7 7 7
16 15 15 15 15 13 12 11 11 11 11 11 11 11 11 10 10 10 11 11 10 10 9 9 9 8 8 8 8 8 7 7 7 8 8 7 7 7 7 7 8 7 7
16 16 15 15 14 14 13 12 12 12 11 12 12 11 11 12 12 11 11 11 11 10 10 10 9 9 9 9 8 8 8 8 8 7 7 7 7 7 8 7 7 7 7
17 16 16 15 15 14 13 13 13 13 13 13 13 13 13 13 13 13 12 11 10 10 10 10 10 10 9 10 10 9 9 9 8 8 8 8 8 8 8 8 8 7 7
18 18 17 16 15 15 15 15 14 14 14 14 14 14 14 13 14 13 13 12 12 12 12 12 11 11 11 11 11 11 10 10 9 8 9 9 9 9 9 9 9 9 8
19 18 17 16 16 16 16 16 15 15 15 14 14 14 14 14 14 14 13 13 12 12 13 12 12 13 12 12 12 11 11 11 10 9 10 10 10 9 10 10 10 10 10
Wind_Direction
304 297 294 290 286 284 287 284 280 284 280 272 274 272 273 275 272 266 259 259 262 262 264 269 268 263 264 265 268 270 270 271 270 265 261 262 262 260 260 261 258 252 254
300 296 293 287 287 287 288 288 281 281 277 275 275 279 273 271 272 269 261 262 266 264 264 269 269 267 268 269 269 268 270 271 269 269 269 269 264 262 261 259 258 256 256
304 300 298 292 292 290 288 287 286 282 281 280 277 282 280 273 272 271 268 268 269 269 267 270 275 271 269 270 269 266 269 271 273 271 268 265 263 263 264 262 260 261 258
310 305 299 297 294 292 291 290 290 288 283 283 280 277 278 276 274 273 273 272 273 271 267 269 272 274 271 266 269 270 269 271 273 271 267 267 266 267 270 265 260 263 264
310 308 305 300 297 291 290 290 289 288 285 284 281 278 276 275 274 273 275 274 275 272 269 268 271 273 274 267 264 267 268 270 274 271 269 269 270 271 272 272 265 267 269
310 308 308 306 300 294 292 289 286 286 285 284 281 279 278 275 273 274 276 275 275 274 276 272 269 273 275 271 265 264 268 270 272 274 272 270 272 274 273 274 270 270 270
311 311 310 309 305 300 297 293 289 290 287 283 282 282 280 281 279 275 275 276 276 276 278 274 270 273 273 271 266 266 269 272 274 274 272 271 275 277 277 275 274 271 273
313 313 313 310 306 302 301 298 296 295 291 288 287 286 284 280 277 274 272 273 276 276 275 273 269 269 270 268 268 267 265 270 274 275 274 273 274 277 278 277 278 275 272
316 316 314 314 308 302 299 298 298 296 295 291 289 289 284 278 274 273 272 271 275 278 277 276 273 271 267 267 270 271 269 271 271 275 278 278 276 278 278 275 276 277 274
321 320 319 316 314 306 299 297 298 297 296 295 292 292 285 281 276 273 274 274 273 275 275 277 274 271 268 267 269 270 270 272 274 276 278 280 279 278 276 277 277 277 277
322 321 321 319 317 313 306 302 298 298 296 296 294 292 287 281 277 277 274 272 272 273 274 277 276 273 271 271 271 270 270 271 273 277 278 279 279 279 279 280 279 279 279
322 321 320 319 316 314 310 305 302 300 297 297 295 292 287 282 279 276 275 274 273 274 276 276 275 274 273 272 270 271 272 272 271 277 279 282 281 280 279 279 279 280 279
322 322 320 319 315 311 308 306 304 303 299 295 295 294 286 282 281 278 277 279 281 280 279 277 276 275 274 272 270 272 274 275 273 274 278 284 283 282 280 279 281 280 279
320 321 320 318 315 310 306 306 302 300 301 296 294 294 290 284 280 279 278 276 277 280 280 279 274 273 272 272 271 272 277 277 275 275 278 281 284 282 281 281 281 279 280
318 318 319 314 311 308 305 304 301 300 298 297 293 290 291 285 282 280 279 274 275 277 281 281 276 279 275 272 273 274 277 279 276 277 276 279 283 281 283 287 284 282 281
315 316 317 315 310 308 306 306 302 299 298 295 294 291 290 286 286 282 278 276 277 278 278 282 281 281 282 276 275 277 278 282 277 276 273 278 279 282 285 289 287 288 283
313 314 316 316 314 310 307 306 304 303 297 292 291 294 290 285 286 284 281 279 277 277 281 283 283 283 283 279 279 279 278 283 279 277 277 279 283 283 287 292 287 289 287
310 312 313 315 315 312 308 306 304 303 299 293 289 291 292 287 286 287 282 283 280 280 283 285 286 287 285 281 279 279 279 280 284 285 279 279 280 282 283 283 289 289 287
307 310 310 312 313 311 305 302 303 301 299 296 292 288 288 286 285 284 287 285 283 285 284 282 281 289 289 284 278 277 276 281 289 289 282 280 281 281 281 283 288 288 286
305 306 307 308 311 310 305 302 303 301 298 298 296 292 288 285 284 284 285 285 283 283 283 285 283 286 288 288 278 276 278 282 285 289 286 286 284 285 285 286 286 288 291
301 303 304 305 308 306 304 301 299 300 299 298 296 293 291 285 282 282 283 282 282 279 278 280 282 284 285 285 282 281 278 275 279 284 282 283 285 289 287 287 292 293 293
298 300 301 302 303 304 302 300 298 297 298 299 297 291 291 288 283 283 277 279 281 280 277 274 278 284 284 284 284 285 281 278 277 277 280 276 282 291 298 300 304 305 300
295 297 299 299 301 300 300 297 296 295 295 295 294 293 291 290 285 282 282 280 279 278 275 271 273 275 278 282 284 285 283 281 278 279 281 279 279 288 296 295 305 308 306
291 294 295 297 298 297 296 295 294 295 295 294 292 290 288 287 287 285 285 282 283 280 275 272 270 271 273 275 277 281 284 283 280 278 275 275 280 284 288 287 291 297 298
289 290 291 292 293 291 292 293 294 294 294 293 292 289 285 283 283 281 281 280 280 278 275 270 270 273 274 274 277 278 280 280 275 272 275 275 279 281 288 289 285 286 290
288 287 288 289 290 289 287 291 293 293 293 292 292 290 287 284 281 277 276 276 275 275 277 273 268 272 275 277 277 276 277 277 275 273 274 274 278 279 283 287 289 287 286
Height
5875 5874 5874 5874 5873 5873 5873 5873 5872 5872 5872 5871 5871 5871 5871 5871 5871 5871 5871 5871 5871 5871 5872 5872 5872 5872 5872 5872 5872 5872 5872 5872 5872 5872 5872 5873 5873 5873 5874 5874 5875 5875 5875
5874 5874 5873 5873 5873 5872 5872 5872 5871 5871 5871 5870 5870 5870 5870 5870 5870 5870 5870 5870 5870 5870 5871 5871 5871 5871 5871 5871 5871 5871 5871 5871 5871 5871 5871 5871 5872 5872 5872 5873 5873 5874 5874
5873 5873 5873 5872 5872 5871 5871 5870 5870 5870 5869 5869 5869 5868 5868 5868 5869 5869 5869 5869 5869 5869 5869 5870 5870 5870 5870 5870 5870 5870 5870 5870 5870 5870 5870 5870 5871 5871 5871 5872 5872 5872 5873
5872 5872 5871 5871 5870 5870 5870 5869 5869 5868 5868 5868 5868 5867 5867 5867 5867 5867 5867 5867 5868 5868 5868 5868 5868 5869 5869 5869 5869 5869 5869 5869 5869 5869 5869 5869 5869 5870 5870 5870 5871 5871 5871
5872 5871 5870 5870 5869 5869 5868 5868 5867 5867 5866 5866 5866 5866 5866 5866 5865 5866 5866 5866 5866 5866 5866 5867 5867 5867 5867 5867 5868 5868 5867 5867 5867 5868 5868 5868 5868 5868 5869 5869 5869 5870 5870
5871 5870 5869 5868 5868 5867 5867 5866 5866 5865 5865 5865 5865 5864 5864 5864 5864 5864 5864 5864 5864 5864 5865 5865 5865 5866 5866 5866 5866 5866 5866 5866 5866 5866 5867 5867 5867 5867 5867 5867 5868 5868 5868
5869 5869 5868 5867 5866 5866 5865 5865 5864 5864 5863 5863 5863 5863 5863 5862 5862 5862 5862 5862 5863 5863 5863 5863 5863 5864 5864 5864 5865 5865 5865 5864 5865 5865 5865 5865 5866 5866 5866 5866 5866 5866 5866
5868 5867 5866 5865 5865 5864 5864 5863 5863 5862 5862 5862 5861 5861 5861 5861 5860 5860 5860 5861 5861 5861 5861 5861 5862 5862 5862 5862 5863 5863 5863 5863 5863 5863 5863 5864 5864 5864 5864 5864 5864 5864 5864
5867 5866 5865 5864 5863 5863 5862 5861 5861 5861 5860 5860 5860 5859 5859 5859 5859 5859 5859 5859 5859 5859 5859 5859 5860 5860 5860 5861 5861 5861 5861 5861 5861 5862 5862 5862 5862 5862 5862 5862 5862 5862 5862
5866 5865 5864 5863 5862 5861 5860 5860 5859 5859 5859 5858 5858 5857 5857 5857 5857 5857 5857 5857 5857 5858 5858 5858 5858 5858 5858 5859 5859 5859 5859 5859 5859 5860 5860 5860 5860 5860 5860 5860 5860 5860 5860
5865 5864 5862 5861 5860 5860 5859 5858 5858 5857 5857 5856 5856 5855 5855 5855 5855 5855 5855 5855 5856 5856 5856 5856 5856 5856 5856 5857 5857 5857 5858 5858 5858 5858 5858 5858 5858 5858 5858 5858 5859 5859 5859
5864 5862 5861 5860 5859 5858 5857 5857 5856 5856 5855 5855 5854 5854 5853 5853 5853 5853 5853 5853 5854 5854 5854 5854 5854 5854 5854 5855 5855 5855 5856 5856 5856 5856 5856 5856 5856 5856 5856 5856 5857 5857 5857
5862 5861 5860 5859 5858 5857 5856 5855 5854 5854 5853 5853 5852 5852 5852 5851 5851 5851 5852 5852 5852 5852 5852 5852 5852 5852 5853 5853 5853 5853 5853 5853 5854 5854 5854 5854 5854 5854 5854 5854 5855 5855 5855
5861 5860 5858 5857 5856 5855 5854 5853 5853 5852 5852 5851 5850 5850 5850 5850 5850 5850 5850 5850 5851 5851 5851 5851 5851 5851 5851 5851 5851 5851 5851 5851 5851 5851 5851 5852 5852 5852 5852 5852 5852 5853 5853
5860 5858 5857 5856 5855 5853 5852 5852 5851 5850 5850 5849 5849 5848 5848 5848 5848 5848 5848 5849 5849 5849 5849 5849 5849 5849 5849 5849 5849 5849 5849 5849 5849 5849 5849 5850 5850 5850 5850 5850 5850 5850 5850
5858 5857 5856 5854 5853 5852 5851 5850 5849 5848 5848 5848 5847 5847 5847 5847 5847 5847 5847 5847 5847 5847 5847 5847 5847 5847 5847 5847 5847 5847 5847 5847 5847 5847 5847 5848 5848 5848 5848 5848 5848 5848 5848
5856 5855 5854 5852 5851 5850 5849 5848 5847 5847 5846 5846 5846 5845 5845 5845 5845 5845 5845 5845 5845 5845 5845 5846 5845 5846 5846 5845 5845 5845 5845 5845 5845 5845 5846 5846 5846 5846 5846 5846 5846 5846 5846
5854 5853 5852 5851 5849 5848 5847 5846 5846 5845 5844 5844 5844 5844 5844 5844 5844 5844 5844 5844 5844 5844 5844 5844 5844 5844 5844 5844 5844 5844 5844 5844 5844 5844 5844 5844 5845 5845 5845 5844 5844 5845 5844
5852 5851 5850 5849 5848 5846 5845 5845 5844 5843 5843 5843 5842 5842 5842 5842 5842 5842 5842 5842 5842 5842 5842 5842 5842 5842 5842 5842 5842 5842 5842 5843 5842 5842 5842 5842 5843 5843 5843 5843 5843 5843 5843
5850 5849 5848 5847 5846 5844 5843 5843 5842 5841 5841 5841 5841 5841 5840 5840 5840 5840 5841 5841 5841 5841 5841 5841 5841 5841 5841 5841 5841 5841 5841 5841 5841 5841 5841 5841 5841 5841 5841 5841 5841 5841 5841
5848 5847 5846 5844 5843 5842 5841 5841 5840 5839 5839 5839 5838 5838 5838 5838 5838 5839 5839 5839 5839 5839 5839 5839 5839 5839 5839 5839 5839 5839 5839 5840 5840 5840 5840 5840 5840 5840 5840 5840 5840 5840 5840
5845 5844 5843 5842 5841 5840 5839 5839 5838 5837 5837 5837 5836 5836 5836 5836 5836 5836 5836 5836 5837 5836 5836 5837 5837 5837 5837 5837 5838 5838 5838 5839 5838 5838 5838 5838 5838 5838 5838 5838 5838 5838 5838
5842 5841 5841 5840 5839 5838 5837 5836 5836 5835 5835 5835 5834 5834 5834 5834 5834 5833 5834 5834 5834 5834 5834 5835 5835 5836 5836 5836 5836 5836 5836 5836 5836 5836 5836 5837 5837 5837 5837 5837 5837 5837 5837
5839 5838 5838 5837 5836 5835 5835 5834 5833 5833 5832 5832 5831 5831 5831 5831 5831 5831 5831 5831 5832 5832 5832 5832 5833 5833 5834 5834 5834 5834 5834 5834 5834 5834 5835 5835 5835 5836 5835 5835 5835 5835 5835
5836 5835 5835 5834 5833 5832 5832 5831 5830 5830 5829 5829 5828 5828 5828 5828 5828 5828 5828 5829 5829 5829 5829 5830 5830 5831 5831 5831 5831 5831 5832 5832 5832 5832 5833 5833 5833 5833 5833 5833 5833 5833 5833
5832 5832 5831 5831 5830 5829 5828 5828 5827 5827 5826 5825 5825 5825 5825 5825 5825 5825 5825 5825 5826 5826 5826 5827 5827 5828 5828 5829 5829 5829 5829 5829 5830 5830 5830 5831 5831 5831 5831 5831 5831 5831 5831